Weather in Luzhok

Russia / Kostroma Oblast     58°20′50″N   41°29′42″E
temp.,
°C
wind,
m/s
gust,
m/s
humid.,
%
clouds,
%
prec.,
mm/h
press.,
hPa
HPBL,
m
25 january, tue
tue2500:00−13ssw4139580 0.0 1029288
03:00−12ssw515936 0.0 1027321
06:00−12ssw41591100 0.0 1025323
09:00−12ssw5159075 0.0 1022322
12:00−9ssw5158542 0.0 1020422
15:00−8ssw5138792 0.0 1018488
18:00−10ssw41292100 0.0 1016372
21:00−10ssw41094100 0.2 1015324
26 january, wed
wed2600:00−11s2695100 0.6 1014227
03:00−11s1296100 1.2 101499
06:00−10s1196100 0.7 101470
09:00−11sse119798 0.9 101427
12:00−8n1191100 0.1 1015237
15:00−8nne119577 0.2 101571
18:00−15nnw1110093 0.0 10179
21:00−17nnw11100100 0.1 10179
27 january, thu
thu2700:00−19w00100100 0.1 10169
03:00−20ssw11100100 0.1 10169
06:00−20s11100100 0.1 10159
09:00−19s12100100 0.1 101541
12:00−12s2494100 0.0 1013183
15:00−11s2695100 0.1 1012284
18:00−13sse3996100 0.0 1011235
21:00−12sse41294100 0.0 1010317
28 january, fri
fri2800:00−11sse41293100 0.0 1009377
03:00−11sse4139199 0.0 1008428
06:00−11sse4129299 0.0 1007414
09:00−12sse4139398 0.1 1007408
12:00−10sse4119299 0.1 1006445
15:00−9sse41092100 0.3 1006499
18:00−9sse4119391 0.1 1006440
21:00−9se41194100 0.2 1006432
29 january, sat
sat2900:00−9se31094100 0.2 1005369
03:00−9se3995100 0.3 1005310
06:00−9se3795100 0.2 1005281
09:00−9ese2696100 0.4 1005249
12:00−8se2392100 0.3 1004298
15:00−7se119498 0.6 1004229
18:00−9wsw0098100 0.3 100411
21:00−11wsw119875 0.6 100311